[[{"header":{"parameterUnit":"m.s-1","parameterCategory":1,"la1":30.2991,"la2":30.254,"lo1":-89.0895,"lo2":-89.0444,"dy":0.0017,"dx":0.0017,"nx":28,"ny":28,"refTime":"2023-04-02T21:00:00:Z","depth":0,"parameterNumber":2,"parameterNumberName":"U-component_of_WINDS"},"data":[0,0,0,0,0,0,0,0,0,0,0,0,0,0,0,0,0,0,0,0,0,0,0,0,0,0,0,0,0,0,0,0,0,0,0,0,0,0,0,0,0,0,0,0,0,0,0,0,0,0,0,0,0,0,0,0,0,0,-1.303,-1.303,0,-1.3042,-1.3042,-1.3042,-1.3041,-1.3041,-1.3041,-1.3041,-1.3053,-1.3053,-1.3054,0,0,0,0,0,0,0,0,0,0,0,0,0,-1.3008,-1.3009,-1.303,-1.303,-1.3031,-1.3042,-1.3042,-1.3042,-1.3041,-1.3041,-1.3041,-1.3041,-1.3052,-1.3053,-1.3054,0,0,0,0,0,0,0,0,0,0,0,0,0,-1.3019,-1.3009,-1.303,-1.3032,-1.3032,-1.3042,-1.3042,-1.3042,-1.3041,-1.3041,-1.3041,-1.3041,-1.3052,-1.3053,-1.3054,-1.3063,0,0,-1.3056,-1.3056,0,0,0,0,0,0,0,0,-1.3018,-1.3019,-1.3031,-1.3032,-1.3032,-1.304,-1.3038,-1.3049,-1.3041,-1.3038,-1.3041,-1.304,-1.3049,-1.305,-1.3052,-1.3064,-1.3064,-1.3056,-1.3056,-1.3057,-1.3057,0,0,0,0,0,0,0,-1.3017,-1.3019,-1.3035,-1.3031,-1.3032,-1.3032,-1.3033,-1.304,-1.3044,-1.3038,-1.3038,-1.3039,-1.3049,-1.3052,-1.3053,-1.3064,-1.3056,-1.3057,-1.3057,-1.3057,-1.3084,-1.3084,0,0,0,0,0,0,-1.3016,-1.3018,-1.3034,-1.3035,-1.3024,-1.3032,-1.3034,-1.3037,-1.3044,-1.3045,-1.304,-1.3039,-1.3051,-1.3052,-1.3053,-1.3064,-1.3057,-1.3057,-1.3058,-1.3084,-1.3084,-1.3085,0,0,0,0,0,0,-1.3016,-1.3018,-1.3034,-1.3027,-1.3029,-1.3033,-1.3037,-1.3038,-1.3041,-1.3045,-1.3046,-1.3042,-1.305,-1.3052,-1.3061,-1.3065,-1.3058,-1.3058,-1.3084,-1.3084,-1.3084,-1.3087,0,0,0,0,0,0,-1.3015,-1.3018,-1.3021,-1.3027,-1.3029,-1.3041,-1.3038,-1.3038,-1.3042,-1.3042,-1.3048,-1.3049,-1.305,-1.306,-1.3061,-1.3066,-1.3059,-1.3083,-1.3084,-1.3084,-1.3087,-1.3088,-1.3089,0,0,0,0,0,-1.3014,-1.3022,-1.3021,-1.3023,-1.3034,-1.3042,-1.3043,-1.3045,-1.3042,-1.3046,-1.3049,-1.3048,-1.3064,-1.306,-1.3062,-1.3067,-1.3083,-1.3084,-1.3084,-1.3087,-1.3088,-1.3089,0,0,0,0,0,0,-1.3016,-1.3022,-1.3022,-1.3031,-1.3036,-1.3041,-1.3046,-1.3046,-1.3051,-1.3051,-1.3053,-1.3054,-1.3063,-1.3066,-1.3062,-1.3077,-1.3073,-1.3074,-1.3074,-1.3075,-1.3076,-1.3075,-1.3059,0,0,0,0,0,-1.3018,-1.3023,-1.3029,-1.3036,-1.3039,-1.3042,-1.3045,-1.3046,-1.3051,-1.3053,-1.3057,-1.3062,-1.3068,-1.3072,-1.3078,-1.3088,-1.3089,-1.3092,-1.3093,-1.3093,-1.3094,-1.3099,-1.3101,-1.3087,-1.3087,-1.3087,0,0,-1.3021,-1.3025,-1.3028,-1.3037,-1.304,-1.3046,-1.3044,-1.305,-1.3055,-1.3054,-1.3063,-1.3066,-1.3071,-1.308,-1.3085,-1.3083,-1.3098,-1.3094,-1.3095,-1.3095,-1.31,-1.3102,-1.3103,-1.3087,-1.3087,-1.3087,0,0,-1.3029,-1.3033,-1.304,-1.3044,-1.3049,-1.3052,-1.3053,-1.3059,-1.3061,-1.3069,-1.3069,-1.3075,-1.3085,-1.3089,-1.3092,-1.3103,-1.3102,-1.3105,-1.3109,-1.3114,-1.3116,-1.3116,-1.312,-1.3121,-1.3106,-1.3106,-1.3106,0,-1.3033,-1.3042,-1.3043,-1.305,-1.3054,-1.3054,-1.3061,-1.3064,-1.3072,-1.3074,-1.3072,-1.3085,-1.3089,-1.3099,-1.3102,-1.3105,-1.3107,-1.3104,-1.3115,-1.3116,-1.3117,-1.3121,-1.3122,-1.3106,-1.3106,-1.3106,-1.3106,0,-1.3045,-1.3051,-1.3056,-1.3063,-1.3067,-1.3074,-1.3077,-1.3081,-1.3082,-1.3084,-1.3093,-1.3098,-1.3104,-1.3107,-1.3108,-1.3117,-1.3116,-1.3115,-1.3111,-1.3119,-1.3122,-1.3123,-1.3106,-1.3106,-1.3106,-1.3106,0,0,-1.3055,-1.3063,-1.3065,-1.3068,-1.3074,-1.3079,-1.3086,-1.3093,-1.3096,-1.3101,-1.3107,-1.3116,-1.3115,-1.3119,-1.312,-1.3124,-1.3132,-1.3122,-1.3123,-1.3124,-1.3143,-1.3144,-1.3145,-1.3132,-1.3132,-1.3133,-1.3142,0,-1.3065,-1.3076,-1.3078,-1.3089,-1.3094,-1.3095,-1.3101,-1.3105,-1.3108,-1.3113,-1.3116,-1.3122,-1.312,-1.3123,-1.3127,-1.313,-1.3136,-1.313,-1.3137,-1.3138,-1.3136,-1.3147,-1.3148,-1.3157,-1.3144,-1.3144,-1.3144,0,-1.3077,-1.3082,-1.3093,-1.3099,-1.3101,-1.3106,-1.3113,-1.3118,-1.3123,-1.3124,-1.3129,-1.313,-1.3137,-1.3133,-1.3143,-1.3139,-1.3142,-1.3144,-1.3145,-1.3145,-1.3141,-1.3148,-1.316,-1.3161,-1.3146,-1.3146,-1.3146,0,-1.3083,-1.3093,-1.3101,-1.3103,-1.311,-1.3114,-1.3117,-1.3122,-1.3126,-1.3131,-1.3133,-1.314,-1.3143,-1.3148,-1.315,-1.3148,-1.316,-1.3157,-1.3162,-1.3162,-1.3164,-1.3164,-1.3177,-1.3167,-1.3167,-1.3166,-1.3166,0,-1.3093,-1.31,-1.3104,-1.3108,-1.3116,-1.3118,-1.3125,-1.3128,-1.3133,-1.3138,-1.3139,-1.3144,-1.3147,-1.3153,-1.3155,-1.3162,-1.3164,-1.3165,-1.3166,-1.3165,-1.3165,-1.3167,-1.3167,-1.3167,-1.3167,-1.3167,-1.3167,0,-1.3101,-1.3104,-1.3113,-1.3118,-1.312,-1.3125,-1.313,-1.3134,-1.3137,-1.3144,-1.3146,-1.315,-1.3156,-1.3159,-1.3167,-1.3169,-1.3178,-1.3178,-1.3176,-1.3176,-1.318,-1.318,-1.3195,-1.3197,-1.3186,-1.3186,-1.3186,0,-1.3108,-1.3113,-1.3119,-1.3122,-1.3125,-1.3131,-1.3135,-1.3137,-1.3141,-1.3148,-1.3152,-1.3158,-1.3163,-1.3174,-1.3178,-1.3184,-1.3184,-1.3189,-1.3185,-1.3184,-1.3184,-1.3184,-1.3184,-1.319,-1.319,-1.319,-1.319,0,-1.3119,-1.312,-1.3125,-1.3131,-1.3135,-1.314,-1.3145,-1.3148,-1.3151,-1.3155,-1.3162,-1.3166,-1.3174,-1.3181,-1.3187,-1.3191,-1.3191,-1.3191,-1.3192,-1.3192,-1.319,-1.3191,-1.3177,-1.3191,-1.3191,-1.3191,-1.3191,-1.319,-1.3126,-1.313,-1.3135,-1.3141,-1.3145,-1.3149,-1.3154,-1.3157,-1.3162,-1.3169,-1.317,-1.3177,-1.3182,-1.3191,-1.3195,-1.32,-1.3199,-1.3201,-1.3202,-1.3202,-1.3202,-1.319,-1.3201,-1.3201,-1.3201,-1.3201,-1.3201,0,-1.3137,-1.314,-1.3145,-1.3152,-1.3156,-1.3156,-1.3161,-1.3165,-1.3171,-1.3176,-1.3181,-1.3189,-1.3195,-1.3199,-1.3206,-1.3209,-1.3209,-1.3211,-1.321,-1.3211,-1.3203,-1.3201,-1.321,-1.321,-1.321,-1.321,-1.321,-1.321,-1.3143,-1.3151,-1.3152,-1.3162,-1.3165,-1.3171,-1.3174,-1.3178,-1.3182,-1.319,-1.3195,-1.3198,-1.3202,-1.3209,-1.3215,-1.3216,-1.3218,-1.322,-1.3221,-1.3213,-1.3212,-1.3211,-1.3209,-1.322,-1.322,-1.3228,-1.3228,-1.3228]},{"header":{"parameterUnit":"m.s-1","parameterCategory":1,"la1":30.2991,"la2":30.254,"lo1":-89.0895,"lo2":-89.0444,"dy":0.0017,"dx":0.0017,"nx":28,"ny":28,"refTime":"2023-04-02T21:00:00:Z","depth":0,"parameterNumber":3,"parameterNumberName":"V-component_of_WINDS"},"data":[0,0,0,0,0,0,0,0,0,0,0,0,0,0,0,0,0,0,0,0,0,0,0,0,0,0,0,0,0,0,0,0,0,0,0,0,0,0,0,0,0,0,0,0,0,0,0,0,0,0,0,0,0,0,0,0,0,0,5.0669,5.0669,0,5.0701,5.0702,5.0702,5.0635,5.0633,5.0631,5.0629,5.0661,5.0664,5.0666,0,0,0,0,0,0,0,0,0,0,0,0,0,5.0548,5.0551,5.0668,5.0669,5.0669,5.0701,5.0702,5.0702,5.0636,5.0633,5.0631,5.0628,5.066,5.0663,5.0667,0,0,0,0,0,0,0,0,0,0,0,0,0,5.0592,5.0551,5.0668,5.064,5.0638,5.0701,5.0702,5.0702,5.0636,5.0633,5.063,5.0627,5.0659,5.0663,5.0667,5.0759,0,0,5.068,5.0682,0,0,0,0,0,0,0,0,5.059,5.0597,5.0644,5.0642,5.064,5.0661,5.0671,5.0721,5.0637,5.0637,5.0629,5.0625,5.0663,5.0667,5.068,5.076,5.0762,5.0681,5.0683,5.0685,5.0686,0,0,0,0,0,0,0,5.0587,5.0595,5.0681,5.0645,5.0642,5.0626,5.0628,5.068,5.0668,5.0637,5.0632,5.0637,5.0662,5.0676,5.0681,5.0762,5.0681,5.0684,5.0687,5.0689,5.0921,5.0925,0,0,0,0,0,0,5.0588,5.0593,5.068,5.0682,5.0607,5.0631,5.0634,5.0657,5.0667,5.0666,5.064,5.0634,5.0671,5.0676,5.0681,5.0791,5.0685,5.0689,5.0692,5.0918,5.0922,5.0926,0,0,0,0,0,0,5.0585,5.0596,5.0679,5.0636,5.0646,5.0636,5.0663,5.066,5.0674,5.0669,5.0667,5.0657,5.0668,5.0675,5.0741,5.0791,5.0691,5.0695,5.0913,5.0919,5.0924,5.101,0,0,0,0,0,0,5.0582,5.0596,5.063,5.0638,5.0648,5.0738,5.0666,5.0663,5.0682,5.0675,5.0685,5.0683,5.0666,5.0735,5.0745,5.0795,5.0698,5.0909,5.0916,5.0922,5.1003,5.1018,5.1031,0,0,0,0,0,5.0578,5.0652,5.0632,5.0643,5.0692,5.0741,5.0747,5.0726,5.0687,5.0722,5.0719,5.0683,5.0784,5.0742,5.0753,5.0805,5.0906,5.0914,5.0922,5.0996,5.1015,5.103,0,0,0,0,0,0,5.0649,5.0653,5.0631,5.0709,5.0726,5.073,5.0773,5.0746,5.0773,5.0765,5.0737,5.074,5.0811,5.0814,5.0768,5.0896,5.0838,5.0849,5.0891,5.0908,5.0922,5.092,5.0702,0,0,0,0,0,5.0675,5.0715,5.0715,5.0785,5.0794,5.0783,5.0803,5.0786,5.0802,5.0808,5.0809,5.0826,5.0861,5.0885,5.0917,5.1003,5.1005,5.1044,5.1058,5.107,5.108,5.1128,5.1146,5.0953,5.0952,5.0952,0,0,5.0726,5.0733,5.076,5.08,5.081,5.0853,5.0789,5.0836,5.0867,5.0815,5.0877,5.0879,5.0895,5.0972,5.1006,5.0977,5.1134,5.108,5.1089,5.1093,5.1138,5.1156,5.1172,5.0958,5.0957,5.0956,0,0,5.0843,5.0852,5.0912,5.0925,5.0942,5.0934,5.0949,5.0958,5.0957,5.102,5.0982,5.1019,5.108,5.1094,5.1109,5.1234,5.1203,5.1245,5.1318,5.1365,5.138,5.1393,5.144,5.1456,5.1254,5.1255,5.1255,0,5.0905,5.0969,5.0946,5.0997,5.1016,5.0972,5.1033,5.1045,5.1072,5.1087,5.1054,5.1132,5.1139,5.1219,5.125,5.1263,5.128,5.1243,5.138,5.1393,5.1405,5.1449,5.1466,5.126,5.1259,5.1258,5.1258,0,5.1045,5.109,5.1136,5.1165,5.1189,5.1244,5.1231,5.1258,5.1239,5.1235,5.13,5.1308,5.1342,5.136,5.1341,5.1439,5.142,5.1384,5.1326,5.1429,5.147,5.1486,5.1267,5.1265,5.1264,5.1262,0,0,5.1206,5.1224,5.1241,5.1255,5.1272,5.1306,5.136,5.1395,5.1419,5.144,5.1485,5.1539,5.1507,5.1524,5.1507,5.1548,5.1649,5.1507,5.1507,5.1534,5.1759,5.1787,5.1807,5.1629,5.1632,5.1634,5.1758,0,5.1323,5.1418,5.14,5.1492,5.1534,5.1494,5.1541,5.1557,5.1555,5.159,5.1587,5.1627,5.158,5.1591,5.163,5.1629,5.1694,5.1619,5.1671,5.1673,5.167,5.1827,5.1857,5.1973,5.1774,5.1776,5.1778,0,5.1472,5.15,5.1597,5.161,5.1627,5.167,5.1701,5.1735,5.1753,5.1749,5.177,5.1745,5.18,5.1741,5.1817,5.1766,5.1787,5.179,5.1794,5.1798,5.1733,5.1838,5.201,5.2028,5.1803,5.1801,5.1799,0,5.1582,5.1644,5.1711,5.1723,5.1739,5.1771,5.1779,5.1794,5.1816,5.1844,5.1858,5.1891,5.191,5.1936,5.1922,5.188,5.2001,5.194,5.1999,5.2,5.2027,5.2026,5.2206,5.2039,5.2038,5.2038,5.2038,0,5.1715,5.1776,5.1761,5.1802,5.187,5.1849,5.1917,5.192,5.1934,5.1975,5.1941,5.1981,5.1959,5.1997,5.1986,5.2051,5.2059,5.2058,5.2055,5.2062,5.2062,5.2075,5.2067,5.2043,5.2042,5.2041,5.204,0,5.185,5.1841,5.1912,5.1922,5.1926,5.1976,5.1985,5.2023,5.202,5.2073,5.2084,5.2078,5.2121,5.2109,5.2156,5.2148,5.2232,5.2217,5.2226,5.2223,5.2284,5.2279,5.248,5.2506,5.2321,5.2323,5.2324,0,5.1936,5.1982,5.1998,5.2024,5.2035,5.2077,5.2101,5.2083,5.2109,5.2134,5.217,5.2211,5.2242,5.2313,5.2313,5.2349,5.2336,5.2404,5.2341,5.2348,5.2339,5.2337,5.2342,5.2417,5.2419,5.242,5.2422,0,5.209,5.2084,5.212,5.2155,5.2185,5.2211,5.2235,5.2258,5.2241,5.2272,5.2317,5.2342,5.2391,5.2432,5.2465,5.2473,5.2446,5.2442,5.2458,5.2466,5.247,5.247,5.2262,5.2437,5.2436,5.2435,5.2434,5.2433,5.2203,5.2244,5.2262,5.2304,5.232,5.2343,5.2381,5.2383,5.242,5.2459,5.2446,5.2498,5.2516,5.2558,5.2571,5.2611,5.2585,5.2608,5.2614,5.262,5.2629,5.2463,5.2617,5.2617,5.2616,5.2616,5.2615,0,5.2357,5.2367,5.2406,5.2441,5.2474,5.2446,5.2471,5.2501,5.2547,5.2567,5.2599,5.2652,5.2692,5.2696,5.2734,5.2766,5.2755,5.2777,5.2775,5.2778,5.2649,5.2632,5.2786,5.2786,5.2786,5.2786,5.2786,5.2786,5.2441,5.2508,5.2505,5.2581,5.2591,5.2642,5.2659,5.2681,5.2697,5.2758,5.2792,5.2794,5.2808,5.2848,5.2884,5.2884,5.29,5.2928,5.2924,5.2803,5.2786,5.277,5.2754,5.2931,5.2932,5.3049,5.305,5.3051]}]]